| time (UTC) | temp F | wind direction | speed MPH | gust MPH | rain 1hr in | rain 24hr in | rain mn in | humidity % | barometer mb |
| 20260506070404 | 41 | 148 | 2.0 | 3.0 | 0.00 | 0.00 | 0.00 | 85 | 1007.0 |
| 20260506061404 | 42 | 145 | 2.0 | 3.0 | 0.00 | 0.00 | 0.00 | 85 | 1006.5 |
| 20260506051403 | 43 | 182 | 1.0 | 5.0 | 0.00 | 0.00 | 0.00 | 84 | 1007.4 |
| 20260506050904 | 43 | 288 | 1.0 | 5.0 | 0.00 | 0.00 | 0.00 | 84 | 1007.4 |
| 20260506050404 | 43 | 247 | 2.0 | 7.0 | 0.00 | 0.00 | 0.00 | 85 | 1007.4 |
| 20260506044404 | 43 | 207 | 0.0 | 3.0 | 0.00 | 0.00 | 0.00 | 85 | 1006.9 |
| 20260506043404 | 43 | 105 | 0.0 | 3.0 | 0.00 | 0.00 | 0.00 | 85 | 1006.0 |
| 20260506042904 | 43 | 105 | 1.0 | 3.0 | 0.00 | 0.00 | 0.00 | 85 | 1005.8 |
| 20260506042404 | 43 | 104 | 1.0 | 3.0 | 0.00 | 0.00 | 0.00 | 85 | 1005.5 |
| 20260506041903 | 42 | 52 | 0.0 | 2.0 | 0.00 | 0.00 | 0.00 | 85 | 1005.5 |
| 20260506041404 | 42 | 48 | 0.0 | 0.0 | 0.00 | 0.00 | 0.00 | 85 | 1005.5 |
| 20260506040904 | 42 | 48 | 0.0 | 2.0 | 0.00 | 0.00 | 0.00 | 84 | 1005.4 |
| 20260506040404 | 42 | 48 | 0.0 | 3.0 | 0.00 | 0.00 | 0.00 | 85 | 1005.6 |
| 20260506035904 | 42 | 46 | 1.0 | 9.0 | 0.00 | 0.00 | 0.00 | 84 | 1005.5 |
| 20260506034904 | 43 | 48 | 2.0 | 5.0 | 0.00 | 0.00 | 0.00 | 84 | 1005.7 |
| 20260506032906 | 43 | 289 | 0.0 | 3.0 | 0.00 | 0.00 | 0.00 | 84 | 1006.1 |
| 20260506030404 | 44 | 187 | 0.0 | 9.0 | 0.00 | 0.00 | 0.00 | 82 | 1005.5 |
| 20260506025903 | 44 | 198 | 1.0 | 17.0 | 0.00 | 0.00 | 0.00 | 81 | 1005.6 |
| 20260506025404 | 45 | 209 | 5.0 | 17.0 | 0.00 | 0.00 | 0.00 | 81 | 1005.7 |
| 20260506024405 | 46 | 68 | 0.0 | 0.0 | 0.00 | 0.00 | 0.00 | 83 | 1004.1 |
| 20260506023904 | 46 | 68 | 0.0 | 0.0 | 0.00 | 0.00 | 0.00 | 82 | 1003.6 |
| 20260506023403 | 46 | 68 | 0.0 | 3.0 | 0.00 | 0.00 | 0.00 | 82 | 1003.4 |
| 20260506022904 | 46 | 68 | 0.0 | 3.0 | 0.00 | 0.00 | 0.00 | 82 | 1003.3 |
| 20260506022404 | 46 | 68 | 1.0 | 3.0 | 0.00 | 0.00 | 0.00 | 82 | 1003.2 |
| 20260506021904 | 46 | 68 | 1.0 | 3.0 | 0.00 | 0.00 | 0.00 | 81 | 1003.3 |
| 20260506021404 | 46 | 70 | 1.0 | 3.0 | 0.00 | 0.00 | 0.00 | 80 | 1003.3 |
| 20260506020403 | 47 | 71 | 0.0 | 1.0 | 0.00 | 0.00 | 0.00 | 78 | 1003.3 |
| 20260506015404 | 48 | 71 | 1.0 | 7.0 | 0.00 | 0.00 | 0.00 | 75 | 1002.8 |
| 20260506014403 | 49 | 210 | 5.0 | 10.0 | 0.00 | 0.00 | 0.00 | 69 | 1003.0 |
| 20260506013404 | 52 | 323 | 2.0 | 3.0 | 0.00 | 0.00 | 0.00 | 58 | 1002.8 |
| 20260506012903 | 52 | 317 | 1.0 | 3.0 | 0.00 | 0.00 | 0.00 | 57 | 1002.3 |
| 20260506012404 | 53 | 316 | 2.0 | 5.0 | 0.00 | 0.00 | 0.00 | 55 | 1001.8 |
| 20260506011904 | 54 | 346 | 2.0 | 6.0 | 0.00 | 0.00 | 0.00 | 55 | 1001.6 |
| 20260506011404 | 55 | 250 | 2.0 | 6.0 | 0.00 | 0.00 | 0.00 | 53 | 1001.3 |
| 20260506010404 | 56 | 273 | 3.0 | 6.0 | 0.00 | 0.00 | 0.00 | 47 | 1001.2 |
| 20260506004904 | 57 | 311 | 2.0 | 10.0 | 0.00 | 0.00 | 0.00 | 45 | 1001.0 |
| 20260506003904 | 58 | 203 | 3.0 | 12.0 | 0.00 | 0.00 | 0.00 | 43 | 1000.8 |
| 20260506003403 | 58 | 193 | 5.0 | 12.0 | 0.00 | 0.00 | 0.00 | 42 | 1000.8 |
| 20260506002404 | 59 | 178 | 4.0 | 12.0 | 0.00 | 0.00 | 0.00 | 41 | 1000.7 |
| 20260506001403 | 59 | 213 | 5.0 | 12.0 | 0.00 | 0.00 | 0.00 | 40 | 1000.5 |
| 20260506000403 | 59 | 189 | 6.0 | 13.0 | 0.00 | 0.00 | 0.00 | 40 | 1000.5 |
| 20260505235404 | 59 | 221 | 6.0 | 12.0 | 0.00 | 0.00 | 0.00 | 44 | 1000.3 |
| 20260505234904 | 59 | 174 | 3.0 | 14.0 | 0.00 | 0.00 | 0.00 | 46 | 1000.4 |
| 20260505233905 | 59 | 193 | 4.0 | 14.0 | 0.00 | 0.00 | 0.00 | 45 | 1000.4 |
| 20260505233405 | 59 | 185 | 5.0 | 16.0 | 0.00 | 0.00 | 0.00 | 45 | 1000.3 |
| 20260505232905 | 59 | 165 | 8.0 | 16.0 | 0.00 | 0.00 | 0.00 | 44 | 1000.3 |
| 20260505232405 | 59 | 189 | 4.0 | 17.0 | 0.00 | 0.00 | 0.00 | 45 | 1000.4 |
| 20260505231905 | 58 | 0 | 6.0 | 17.0 | 0.00 | 0.00 | 0.00 | 44 | 1000.3 |
| 20260505230905 | 58 | 0 | 7.0 | 14.0 | 0.00 | 0.00 | 0.00 | 44 | 1000.2 |
| 20260505225405 | 60 | 159 | 6.0 | 16.0 | 0.00 | 0.00 | 0.00 | 43 | 1000.1 |
| 20260505224404 | 61 | 214 | 7.0 | 16.0 | 0.00 | 0.00 | 0.00 | 42 | 1000.0 |
| 20260505222905 | 60 | 175 | 5.0 | 12.0 | 0.00 | 0.00 | 0.00 | 43 | 999.9 |
| 20260505222404 | 60 | 168 | 6.0 | 12.0 | 0.00 | 0.00 | 0.00 | 43 | 1000.0 |
| 20260505221905 | 60 | 125 | 3.0 | 9.0 | 0.00 | 0.00 | 0.00 | 43 | 1000.0 |
| 20260505220904 | 60 | 214 | 3.0 | 8.0 | 0.00 | 0.00 | 0.00 | 43 | 1000.1 |
| 20260505214405 | 62 | 194 | 3.0 | 8.0 | 0.00 | 0.00 | 0.00 | 40 | 1000.3 |
| 20260505213405 | 61 | 255 | 3.0 | 12.0 | 0.00 | 0.00 | 0.00 | 43 | 1000.5 |
| 20260505212905 | 61 | 235 | 5.0 | 12.0 | 0.00 | 0.00 | 0.00 | 42 | 1000.6 |
| 20260505212405 | 61 | 225 | 3.0 | 9.0 | 0.00 | 0.00 | 0.00 | 43 | 1000.7 |
| 20260505211905 | 61 | 260 | 4.0 | 10.0 | 0.00 | 0.00 | 0.00 | 42 | 1000.7 |
| 20260505210905 | 61 | 220 | 3.0 | 12.0 | 0.00 | 0.00 | 0.00 | 43 | 1000.9 |
| 20260505210404 | 61 | 255 | 6.0 | 12.0 | 0.00 | 0.00 | 0.00 | 43 | 1000.9 |
| 20260505204905 | 59 | 216 | 3.0 | 9.0 | 0.00 | 0.00 | 0.00 | 46 | 1001.2 |
| 20260505202905 | 57 | 208 | 3.0 | 9.0 | 0.00 | 0.00 | 0.00 | 49 | 1001.5 |
| 20260505202405 | 58 | 176 | 4.0 | 7.0 | 0.00 | 0.00 | 0.00 | 50 | 1001.8 |
| 20260505201904 | 57 | 239 | 2.0 | 8.0 | 0.00 | 0.00 | 0.00 | 52 | 1001.7 |
| 20260505200905 | 57 | 189 | 3.0 | 12.0 | 0.00 | 0.00 | 0.00 | 55 | 1001.6 |
| 20260505194905 | 58 | 200 | 4.0 | 13.0 | 0.00 | 0.00 | 0.00 | 49 | 1001.6 |
| 20260505194405 | 58 | 258 | 3.0 | 12.0 | 0.00 | 0.00 | 0.00 | 52 | 1001.5 |
| 20260505193905 | 57 | 176 | 3.0 | 12.0 | 0.00 | 0.00 | 0.00 | 53 | 1001.5 |
| 20260505192904 | 56 | 235 | 3.0 | 8.0 | 0.00 | 0.00 | 0.00 | 59 | 1001.5 |
| 20260505192405 | 55 | 294 | 2.0 | 8.0 | 0.00 | 0.00 | 0.00 | 63 | 1001.5 |
| 20260505191905 | 54 | 235 | 2.0 | 8.0 | 0.00 | 0.00 | 0.00 | 68 | 1001.6 |
| 20260505190904 | 56 | 291 | 3.0 | 12.0 | 0.00 | 0.00 | 0.00 | 55 | 1001.8 |
| 20260505185905 | 60 | 193 | 5.0 | 12.0 | 0.00 | 0.00 | 0.00 | 39 | 1001.4 |
| 20260505185405 | 60 | 194 | 5.0 | 12.0 | 0.00 | 0.00 | 0.00 | 39 | 1001.0 |
| 20260505183405 | 59 | 159 | 7.0 | 13.0 | 0.00 | 0.00 | 0.00 | 38 | 1001.1 |
| 20260505181905 | 59 | 146 | 3.0 | 12.0 | 0.00 | 0.00 | 0.00 | 38 | 1001.0 |
| 20260505180905 | 60 | 232 | 3.0 | 10.0 | 0.00 | 0.00 | 0.00 | 39 | 1000.9 |
| 20260505175905 | 60 | 207 | 3.0 | 8.0 | 0.00 | 0.00 | 0.00 | 39 | 1001.0 |
| 20260505175405 | 59 | 165 | 2.0 | 6.0 | 0.00 | 0.00 | 0.00 | 40 | 1001.0 |
| 20260505174905 | 59 | 222 | 3.0 | 6.0 | 0.00 | 0.00 | 0.00 | 39 | 1001.3 |
| 20260505173405 | 59 | 49 | 2.0 | 8.0 | 0.00 | 0.00 | 0.00 | 39 | 1001.5 |
| 20260505170905 | 56 | 190 | 2.0 | 9.0 | 0.00 | 0.00 | 0.00 | 42 | 1001.7 |
| 20260505170405 | 56 | 124 | 3.0 | 7.0 | 0.00 | 0.00 | 0.00 | 41 | 1001.8 |
| 20260505165405 | 55 | 146 | 1.0 | 7.0 | 0.00 | 0.00 | 0.00 | 42 | 1002.0 |
| 20260505164404 | 55 | 191 | 3.0 | 9.0 | 0.00 | 0.00 | 0.00 | 43 | 1002.2 |
| 20260505163405 | 55 | 225 | 1.0 | 6.0 | 0.00 | 0.00 | 0.00 | 41 | 1002.3 |
| 20260505162905 | 55 | 193 | 2.0 | 8.0 | 0.00 | 0.00 | 0.00 | 42 | 1002.3 |
| 20260505162405 | 55 | 0 | 4.0 | 8.0 | 0.00 | 0.00 | 0.00 | 43 | 1002.3 |
| 20260505161404 | 55 | 0 | 1.0 | 3.0 | 0.00 | 0.00 | 0.00 | 42 | 1002.5 |
| 20260505160405 | 54 | 0 | 0.0 | 3.0 | 0.00 | 0.00 | 0.00 | 40 | 1002.5 |
| 20260505152405 | 54 | 213 | 2.0 | 5.0 | 0.00 | 0.00 | 0.00 | 46 | 1002.5 |
| 20260505151404 | 54 | 178 | 2.0 | 5.0 | 0.00 | 0.00 | 0.00 | 46 | 1002.5 |
| 20260505150905 | 54 | 196 | 2.0 | 5.0 | 0.00 | 0.00 | 0.00 | 46 | 1002.6 |
| 20260505150404 | 54 | 0 | 2.0 | 5.0 | 0.00 | 0.00 | 0.00 | 46 | 1002.7 |
| 20260505140405 | 56 | 212 | 2.0 | 7.0 | 0.00 | 0.00 | 0.00 | 46 | 1002.8 |
| 20260505124904 | 48 | 205 | 0.0 | 2.0 | 0.00 | 0.00 | 0.00 | 52 | 1003.0 |
| 20260505124405 | 47 | 205 | 0.0 | 7.0 | 0.00 | 0.00 | 0.00 | 51 | 1003.1 |
| 20260505122405 | 46 | 153 | 0.0 | 2.0 | 0.00 | 0.00 | 0.00 | 55 | 1002.8 |
| 20260505121905 | 46 | 153 | 1.0 | 3.0 | 0.00 | 0.00 | 0.00 | 54 | 1002.6 |
| 20260505120905 | 46 | 180 | 1.0 | 3.0 | 0.00 | 0.00 | 0.00 | 55 | 1002.5 |
| 20260505120405 | 46 | 200 | 1.0 | 3.0 | 0.00 | 0.00 | 0.00 | 54 | 1002.3 |
| 20260505115905 | 46 | 307 | 1.0 | 2.0 | 0.00 | 0.00 | 0.00 | 54 | 1002.4 |
| 20260505115405 | 46 | 307 | 1.0 | 3.0 | 0.00 | 0.00 | 0.00 | 54 | 1002.3 |
| 20260505114405 | 46 | 201 | 1.0 | 2.0 | 0.00 | 0.00 | 0.00 | 55 | 1002.5 |
| 20260505113404 | 47 | 179 | 1.0 | 2.0 | 0.00 | 0.00 | 0.00 | 55 | 1002.6 |
| 20260505112405 | 47 | 179 | 1.0 | 3.0 | 0.00 | 0.00 | 0.00 | 55 | 1002.6 |
| 20260505111905 | 47 | 179 | 1.0 | 3.0 | 0.00 | 0.00 | 0.00 | 55 | 1002.6 |
| 20260505111405 | 47 | 184 | 2.0 | 3.0 | 0.00 | 0.00 | 0.00 | 56 | 1002.5 |
| 20260505110404 | 47 | 229 | 0.0 | 2.0 | 0.00 | 0.00 | 0.00 | 55 | 1002.5 |
| 20260505100905 | 49 | 287 | 1.0 | 2.0 | 0.00 | 0.00 | 0.00 | 51 | 1002.1 |
| 20260505094405 | 49 | 270 | 0.0 | 1.0 | 0.00 | 0.00 | 0.00 | 48 | 1002.0 |
| 20260505093405 | 50 | 270 | 0.0 | 0.0 | 0.00 | 0.00 | 0.00 | 47 | 1001.8 |
| 20260505092404 | 50 | 270 | 0.0 | 1.0 | 0.00 | 0.00 | 0.00 | 47 | 1001.8 |
| 20260505091905 | 50 | 270 | 0.0 | 1.0 | 0.00 | 0.00 | 0.00 | 45 | 1001.7 |
| 20260505084905 | 52 | 270 | 0.0 | 2.0 | 0.00 | 0.00 | 0.00 | 41 | 1002.2 |
| 20260505083404 | 54 | 270 | 1.0 | 2.0 | 0.00 | 0.00 | 0.00 | 38 | 1002.4 |
| 20260505082904 | 54 | 270 | 1.0 | 2.0 | 0.00 | 0.00 | 0.00 | 38 | 1002.7 |
| 20260505081905 | 55 | 270 | 0.0 | 1.0 | 0.00 | 0.00 | 0.00 | 36 | 1003.1 |
| 20260505081405 | 55 | 270 | 0.0 | 1.0 | 0.00 | 0.00 | 0.00 | 36 | 1003.0 |
| 20260505071905 | 58 | 309 | 2.0 | 8.0 | 0.00 | 0.00 | 0.00 | 31 | 1002.3 |
| 20260505071404 | 58 | 237 | 2.0 | 7.0 | 0.00 | 0.00 | 0.00 | 31 | 1002.2 |